Regional Weather Roundup
Issued by NWS

Home | Current Version | Previous Version | Text Only | Print | Product List | Glossary Off
Versions: 1 2 3 4 5 6 7 8 9 10 11 12 13 14 15 16 17 18 19 20 21 22 23 24 25 26 27 28 29 30 31 32 33 34 35 36 37 38 39 40 41 42 43 44 45 46 47 48 49 50

000
ASUS45 KABQ 301301
RWRNM
NEW MEXICO REGIONAL WEATHER ROUNDUP
NATIONAL WEATHER SERVICE ALBUQUERQUE NM
700 AM MDT SAT JUL 30 2016

NOTE: "FAIR" MEANS FEW OR NO CLOUDS BELOW 12,000 FEET AGL WITH NO
       SIGNIFICANT WEATHER OR OBSTRUCTIONS TO VISION.

      THIS PRODUCT IS RELEASED AS TWO VERSIONS.  ONE VERSION NEAR
      THE TOP OF THE HOUR CONTAINING PRELIMINARY DATA FROM ALBUQUERQUE
      AND OTHER STATIONS.  A FINAL VERSION WITH ADDITIONAL DATA IS
      ISSUED ABOUT 10 MINUTES AFTER THE HOUR.

NMZ501-503-504-510>518-301400-
NORTHWEST PLATEAU/NORTHCENTRAL MOUNTAINS

CITY           SKY/WX    TMP DP  RH WIND       PRES   REMARKS
FARMINGTON     FAIR      68  43  40 E7        30.13R
LOS ALAMOS     FAIR      63  44  51 SW6       30.31S
SANTA FE       FAIR      65  48  54 E8        30.25R
TAOS           FAIR      52  34  50 CALM      30.32S
ANGEL FIRE     FAIR      39  38  94 CALM      30.40F

$$
NMZ402-403-502-505>509-301400-
WESTCENTRAL MOUNTAINS/SOUTHWEST MOUNTAINS

CITY           SKY/WX    TMP DP  RH WIND       PRES   REMARKS
GALLUP         FAIR      62  45  53 W3        30.21S
GRANTS         FAIR      56  49  79 S3        30.26R
SILVER CITY    FAIR      66  55  66 CALM      30.18R

$$
NMZ407-409-411-412-301400-
SOUTHERN DESERTS

CITY           SKY/WX    TMP DP  RH WIND       PRES   REMARKS
LORDSBURG      FAIR      70  52  52 CALM      30.08R
DEMING         MOCLDY    73  57  57 NE6       30.09R
LAS CRUCES     FAIR      73  58  61 E3        30.12R
HOLLOMAN AFB   FAIR      73  58  58 SW7       30.08R
ALAMOGORDO     FAIR      72  55  56 SE5       30.10S
T OR C         FAIR      69  51  52 NW6       30.13R

$$
NMZ519>523-301400-
CENTRAL VALLEYS/CENTRAL HIGHLANDS

CITY           SKY/WX    TMP DP  RH WIND       PRES   REMARKS
ALBUQUERQUE    FAIR      66  55  67 N8        30.18R
DOUBLE EAGLE   PTCLDY    57  48  72 NW3       30.21R
MORIARTY ARPT  FAIR      54  51  88 NW5       30.26R
CLINES CORNERS FAIR      58  50  75 SE5       30.30S
BELEN          FAIR      67  48  50 CALM      30.16S
SOCORRO        FAIR      66  46  47 W6        30.15R

$$
NMZ524>526-539-540-301400-
SOUTHCENTRAL MOUNTAINS

CITY           SKY/WX    TMP DP  RH WIND       PRES   REMARKS
RUIDOSO          N/A     63  50  63 W5        30.30S

$$
NMZ527>531-301400-
NORTHEAST HIGHLANDS/NORTHEAST PLAINS

CITY           SKY/WX    TMP DP  RH WIND       PRES   REMARKS
LAS VEGAS      FAIR      55  48  77 S9        30.28R
RATON          FAIR      56  51  84 N3        30.22S
CLAYTON        FAIR      62  57  83 W13       30.14S

$$
NMZ532>537-301400-
EASTCENTRAL PLAINS

CITY           SKY/WX    TMP DP  RH WIND       PRES   REMARKS
TUCUMCARI      FAIR      63  60  90 S3        30.12R
CANNON AFB     FAIR      64  64 100 SE7       30.15R
CLOVIS AIRPORT FAIR      64  59  82 SW7       30.15S

$$
NMZ028-029-538-301400-
SOUTHEAST PLAINS

CITY           SKY/WX    TMP DP  RH WIND       PRES   REMARKS
ROSWELL        FAIR      71  57  61 SE7       30.08S
ARTESIA        FAIR      72  59  64 CALM      30.09R
CARLSBAD       FAIR      71  58  63 S3        30.05S
HOBBS          CLEAR     68  68 100 E5        30.11S


$$



USA.gov is the U.S. government's official web portal to all federal, state and local government web resources and services.